Flag for South Africa Weather past 2 weeks in Durban, South Africa

Now
77 °F

Broken clouds.


Feels Like: 79 °F
Forecast: 60 / 81 °F
Wind: 14 mph from South

Location: King Shaka International Airport

Current Time: May 27, 2015 at 1:00:40 PM

Latest Report: May 27, 2015 at 12:00 PM


Visibility: N/A

Pressure: 30.12 "Hg

Humidity: 69%

Dew point: 66 °F

Location of DurbanLocation

Historic Weather in Durban — Graph

°F

Durban temperature yesterday

Maximum temperature yesterday: 77 °F (at 11:00 AM)
Minimum temperature yesterday: 63 °F (at 12:00 AM)
Average temperature yesterday: 69 °F

Past Weeks' High & Low Weather Summary

 TemperatureHumidityPressure
High88 °F (May 19, 11:00 AM)94% (May 13, 4:00 AM)30.45 "Hg (May 13, 4:00 AM)
Low52 °F (May 25, 5:00 AM)26% (May 25, 2:00 PM)29.86 "Hg (May 14, 2:00 AM)
Average68 °F74%30.08 "Hg
* Reported May 12 12:00 Noon — May 27 12:00 Noon, Durban, Weather by CustomWeather, © 2015

Note: Actual official high and low records may vary slightly from our data, if they occured in-between our weather recording intervals... More about our weather records

Advertising

Durban weather history for previous 24 hours

 ConditionsComfort  
Time TempWeatherWind HumidityBarometerVisibility
12:00 PM
Wed, May 27
77 °FBroken clouds.14 mph69%30.12 "HgN/A
11:00 AM75 °FPartly sunny.14 mph69%30.12 "HgN/A
10:00 AM73 °FPartly sunny.10 mph69%30.15 "HgN/A
9:00 AM72 °FPartly sunny.10 mph73%30.12 "HgN/A
8:00 AM68 °FBroken clouds.5 mph83%30.09 "Hg6 mi
7:00 AM64 °FPassing clouds.6 mph88%30.07 "Hg6 mi
6:00 AM64 °FPassing clouds.16 mph88%30.04 "HgN/A
5:00 AM63 °FClear.10 mph83%30.01 "Hg10 mi
4:00 AM63 °FClear.3 mph88%29.98 "Hg6 mi
3:00 AM63 °FClear.7 mph88%29.98 "Hg6 mi
2:00 AM63 °FClear.5 mph94%29.98 "Hg6 mi
1:00 AM63 °FClear.2 mph94%29.98 "Hg5 mi
12:00 AM64 °FClear.5 mph94%29.98 "Hg6 mi
11:00 PM
Tue, May 26
68 °FPassing clouds.3 mph83%29.98 "Hg6 mi
10:00 PM70 °FMostly cloudy.6 mph88%29.98 "Hg5 mi
9:00 PM70 °FOvercast.3 mph88%29.98 "Hg6 mi
8:00 PM70 °FMostly cloudy.2 mph88%29.98 "Hg6 mi
7:00 PM70 °FPassing clouds.5 mph88%29.98 "Hg6 mi
6:00 PM68 °FClear.2 mph83%29.95 "Hg5 mi
5:00 PM72 °FClear.5 mph83%29.95 "Hg10 mi
4:00 PM73 °FSunny.6 mph78%29.92 "Hg10 mi
3:00 PM75 °FSunny.10 mph69%29.92 "Hg10 mi
2:00 PM75 °FSunny.13 mph69%29.92 "Hg10 mi
1:00 PM77 °FSunny.9 mph65%29.95 "Hg10 mi
Weather by CustomWeather, © 2015

See weather overviewHow to use our weather pages